Time,TemperatureF,DewpointF,PressureIn,WindDirection,WindDirectionDegrees,WindSpeedMPH,WindSpeedGustMPH,Humidity,HourlyPrecipIn,Conditions,Clouds,dailyrainin,SoftwareType,DateUTC
2013-02-19 00:10:00,39.5,26.0,30.15,SE,130,0.0,-999.0,58,-99.99,,,0.00,weatherlink.com 1.10,2013-02-19 05:10:00,
2013-02-19 00:24:00,39.2,25.0,30.14,East,99,0.0,-999.0,58,-99.99,,,0.00,weatherlink.com 1.10,2013-02-19 05:24:00,
2013-02-19 00:39:00,38.5,26.0,30.14,East,85,0.0,-999.0,60,-99.99,,,0.00,weatherlink.com 1.10,2013-02-19 05:39:00,
2013-02-19 00:55:00,37.9,26.0,30.13,East,85,0.0,-999.0,62,-99.99,,,0.00,weatherlink.com 1.10,2013-02-19 05:55:00,
2013-02-19 01:09:00,37.2,25.0,30.12,East,85,0.0,-999.0,62,-99.99,,,0.00,weatherlink.com 1.10,2013-02-19 06:09:00,
2013-02-19 01:24:00,36.6,25.0,30.13,East,83,0.0,-999.0,64,-99.99,,,0.00,weatherlink.com 1.10,2013-02-19 06:24:00,
2013-02-19 01:39:00,36.5,26.0,30.13,East,83,0.0,-999.0,66,-99.99,,,0.00,weatherlink.com 1.10,2013-02-19 06:39:00,
2013-02-19 01:55:00,36.2,26.0,30.12,East,83,0.0,-999.0,66,-99.99,,,0.00,weatherlink.com 1.10,2013-02-19 06:55:00,
2013-02-19 02:10:00,36.0,26.0,30.11,East,83,0.0,-999.0,67,-99.99,,,0.00,weatherlink.com 1.10,2013-02-19 07:10:00,
2013-02-19 02:25:00,35.5,26.0,30.11,East,83,0.0,-999.0,68,-99.99,,,0.00,weatherlink.com 1.10,2013-02-19 07:25:00,
2013-02-19 02:40:00,35.2,26.0,30.10,East,83,0.0,-999.0,69,-99.99,,,0.00,weatherlink.com 1.10,2013-02-19 07:40:00,
2013-02-19 02:55:00,35.3,26.0,30.09,East,83,0.0,-999.0,70,-99.99,,,0.00,weatherlink.com 1.10,2013-02-19 07:55:00,
2013-02-19 03:10:00,35.2,27.0,30.09,East,83,0.0,-999.0,71,-99.99,,,0.00,weatherlink.com 1.10,2013-02-19 08:10:00,
2013-02-19 03:25:00,34.9,27.0,30.08,East,83,0.0,-999.0,72,-99.99,,,0.00,weatherlink.com 1.10,2013-02-19 08:25:00,
2013-02-19 03:40:00,34.4,27.0,30.07,East,83,0.0,-999.0,73,-99.99,,,0.00,weatherlink.com 1.10,2013-02-19 08:40:00,
2013-02-19 03:55:00,34.4,27.0,30.06,East,83,0.0,-999.0,74,-99.99,,,0.00,weatherlink.com 1.10,2013-02-19 08:55:00,
2013-02-19 04:10:00,34.7,27.0,30.05,East,83,0.0,-999.0,74,-99.99,,,0.00,weatherlink.com 1.10,2013-02-19 09:10:00,
2013-02-19 04:25:00,35.0,27.0,30.04,East,83,0.0,-999.0,73,-99.99,,,0.00,weatherlink.com 1.10,2013-02-19 09:25:00,
2013-02-19 04:40:00,35.2,28.0,30.04,East,83,0.0,-999.0,74,-99.99,,,0.00,weatherlink.com 1.10,2013-02-19 09:40:00,
2013-02-19 04:55:00,35.3,28.0,30.04,East,83,0.0,-999.0,74,-99.99,,,0.00,weatherlink.com 1.10,2013-02-19 09:55:00,
2013-02-19 05:10:00,35.8,28.0,30.04,East,83,0.0,-999.0,74,-99.99,,,0.00,weatherlink.com 1.10,2013-02-19 10:10:00,
2013-02-19 05:25:00,36.0,28.0,30.03,East,83,0.0,-999.0,74,-99.99,,,0.00,weatherlink.com 1.10,2013-02-19 10:25:00,
2013-02-19 05:40:00,36.0,29.0,30.02,East,80,0.0,-999.0,75,-99.99,,,0.00,weatherlink.com 1.10,2013-02-19 10:40:00,
2013-02-19 05:55:00,35.9,29.0,30.03,East,80,0.0,-999.0,75,-99.99,,,0.00,weatherlink.com 1.10,2013-02-19 10:55:00,
2013-02-19 06:10:00,35.8,29.0,30.02,East,79,0.0,-999.0,76,-99.99,,,0.00,weatherlink.com 1.10,2013-02-19 11:10:00,
2013-02-19 06:25:00,36.0,29.0,30.02,East,79,0.0,-999.0,75,-99.99,,,0.00,weatherlink.com 1.10,2013-02-19 11:25:00,
2013-02-19 06:40:00,36.0,29.0,30.01,East,79,0.0,-999.0,76,-99.99,,,0.00,weatherlink.com 1.10,2013-02-19 11:40:00,
2013-02-19 06:55:00,36.5,30.0,30.01,ENE,65,0.0,-999.0,76,-99.99,,,0.00,weatherlink.com 1.10,2013-02-19 11:55:00,
2013-02-19 07:10:00,37.2,30.0,30.00,ENE,66,0.0,-999.0,75,-99.99,,,0.00,weatherlink.com 1.10,2013-02-19 12:10:00,
2013-02-19 07:25:00,37.9,31.0,30.00,ENE,66,0.0,-999.0,75,-99.99,,,0.00,weatherlink.com 1.10,2013-02-19 12:25:00,
2013-02-19 07:40:00,38.6,31.0,30.00,ENE,66,0.0,-999.0,74,-99.99,,,0.00,weatherlink.com 1.10,2013-02-19 12:40:00,
2013-02-19 07:55:00,39.5,32.0,30.00,East,92,0.0,-999.0,74,-99.99,,,0.00,weatherlink.com 1.10,2013-02-19 12:55:00,
2013-02-19 08:10:00,40.9,33.0,30.00,ESE,104,0.0,-999.0,74,-99.99,,,0.00,weatherlink.com 1.10,2013-02-19 13:10:00,
2013-02-19 08:25:00,42.6,34.0,29.99,SSE,151,0.0,-999.0,72,-99.99,,,0.00,weatherlink.com 1.10,2013-02-19 13:25:00,
2013-02-19 08:40:00,43.2,35.0,29.99,ESE,103,0.0,-999.0,73,-99.99,,,0.00,weatherlink.com 1.10,2013-02-19 13:40:00,
2013-02-19 08:55:00,44.1,36.0,29.98,SE,133,0.0,-999.0,73,-99.99,,,0.00,weatherlink.com 1.10,2013-02-19 13:55:00,
2013-02-19 09:10:00,44.6,36.0,29.97,East,86,0.0,-999.0,73,-99.99,,,0.00,weatherlink.com 1.10,2013-02-19 14:10:00,
2013-02-19 09:25:00,45.2,37.0,29.96,NE,56,0.0,-999.0,73,-99.99,,,0.00,weatherlink.com 1.10,2013-02-19 14:25:00,
2013-02-19 09:40:00,45.7,37.0,29.96,ENE,75,0.0,-999.0,73,-99.99,,,0.00,weatherlink.com 1.10,2013-02-19 14:40:00,
2013-02-19 09:55:00,45.8,38.0,29.96,ESE,106,0.0,-999.0,74,-99.99,,,0.00,weatherlink.com 1.10,2013-02-19 14:55:00,
2013-02-19 10:10:00,46.1,39.0,29.95,East,83,0.0,-999.0,75,-99.99,,,0.00,weatherlink.com 1.10,2013-02-19 15:10:00,
2013-02-19 10:25:00,46.5,41.0,29.95,NNE,24,0.0,-999.0,80,-99.99,,,0.00,weatherlink.com 1.10,2013-02-19 15:25:00,
2013-02-19 10:41:00,47.1,42.0,29.94,ESE,113,0.0,-999.0,82,-99.99,,,0.01,weatherlink.com 1.10,2013-02-19 15:41:00,
2013-02-19 10:56:00,47.6,43.0,29.93,SSE,164,0.0,-999.0,84,-99.99,,,0.01,weatherlink.com 1.10,2013-02-19 15:56:00,
2013-02-19 11:11:00,48.0,44.0,29.93,South,184,0.0,-999.0,85,-99.99,,,0.01,weatherlink.com 1.10,2013-02-19 16:11:00,
2013-02-19 11:25:00,48.9,44.0,29.92,ENE,65,0.0,-999.0,84,-99.99,,,0.01,weatherlink.com 1.10,2013-02-19 16:25:00,
2013-02-19 11:40:00,49.1,44.0,29.91,SSW,206,2.0,-999.0,83,-99.99,,,0.01,weatherlink.com 1.10,2013-02-19 16:40:00,
2013-02-19 11:55:00,49.1,45.0,29.90,ESE,106,1.0,-999.0,86,-99.99,,,0.02,weatherlink.com 1.10,2013-02-19 16:55:00,
2013-02-19 12:10:00,49.4,46.0,29.89,ENE,59,0.0,-999.0,87,-99.99,,,0.03,weatherlink.com 1.10,2013-02-19 17:10:00,
2013-02-19 12:26:00,49.8,45.0,29.87,South,181,0.0,-999.0,84,-99.99,,,0.03,weatherlink.com 1.10,2013-02-19 17:26:00,
2013-02-19 12:41:00,50.7,46.0,29.86,SE,133,11.0,-999.0,83,-99.99,,,0.03,weatherlink.com 1.10,2013-02-19 17:41:00,
2013-02-19 12:56:00,51.3,46.0,29.85,ESE,120,0.0,-999.0,83,-99.99,,,0.03,weatherlink.com 1.10,2013-02-19 17:56:00,
2013-02-19 13:11:00,52.2,48.0,29.84,SSE,152,0.0,-999.0,84,-99.99,,,0.03,weatherlink.com 1.10,2013-02-19 18:11:00,
2013-02-19 13:26:00,52.5,48.0,29.82,ESE,121,0.0,-999.0,85,-99.99,,,0.03,weatherlink.com 1.10,2013-02-19 18:26:00,
2013-02-19 13:41:00,52.6,48.0,29.80,NE,44,1.0,-999.0,85,-99.99,,,0.03,weatherlink.com 1.10,2013-02-19 18:41:00,
2013-02-19 13:56:00,52.6,48.0,29.78,WSW,246,0.0,-999.0,84,-99.99,,,0.03,weatherlink.com 1.10,2013-02-19 18:56:00,
2013-02-19 14:11:00,52.9,49.0,29.78,ESE,121,0.0,-999.0,86,-99.99,,,0.03,weatherlink.com 1.10,2013-02-19 19:11:00,
2013-02-19 14:26:00,52.0,50.0,29.78,South,176,0.0,-999.0,91,-99.99,,,0.05,weatherlink.com 1.10,2013-02-19 19:26:00,
2013-02-19 14:41:00,51.7,49.0,29.78,SSE,162,0.0,-999.0,91,-99.99,,,0.06,weatherlink.com 1.10,2013-02-19 19:41:00,
2013-02-19 14:56:00,51.7,50.0,29.77,South,184,2.0,-999.0,93,-99.99,,,0.07,weatherlink.com 1.10,2013-02-19 19:56:00,
2013-02-19 15:11:00,51.6,50.0,29.77,SSE,147,0.0,-999.0,94,-99.99,,,0.07,weatherlink.com 1.10,2013-02-19 20:11:00,
2013-02-19 15:26:00,51.3,50.0,29.76,SE,140,0.0,-999.0,94,-99.99,,,0.07,weatherlink.com 1.10,2013-02-19 20:26:00,
2013-02-19 15:41:00,51.1,50.0,29.75,SSE,155,0.0,-999.0,94,-99.99,,,0.08,weatherlink.com 1.10,2013-02-19 20:41:00,
2013-02-19 15:56:00,51.0,49.0,29.75,South,176,0.0,-999.0,94,-99.99,,,0.08,weatherlink.com 1.10,2013-02-19 20:56:00,
2013-02-19 16:11:00,51.0,49.0,29.75,SSE,150,2.0,-999.0,92,-99.99,,,0.08,weatherlink.com 1.10,2013-02-19 21:11:00,
2013-02-19 16:26:00,50.5,48.0,29.75,SSW,199,3.0,-999.0,92,-99.99,,,0.08,weatherlink.com 1.10,2013-02-19 21:26:00,
2013-02-19 16:41:00,50.4,48.0,29.75,South,184,7.0,-999.0,92,-99.99,,,0.08,weatherlink.com 1.10,2013-02-19 21:41:00,
2013-02-19 16:56:00,50.2,47.0,29.75,SSW,200,1.0,-999.0,90,-99.99,,,0.08,weatherlink.com 1.10,2013-02-19 21:56:00,
2013-02-19 17:11:00,50.1,47.0,29.75,SSW,196,3.0,-999.0,90,-99.99,,,0.08,weatherlink.com 1.10,2013-02-19 22:11:00,
2013-02-19 17:26:00,49.9,47.0,29.75,South,174,0.0,-999.0,90,-99.99,,,0.08,weatherlink.com 1.10,2013-02-19 22:26:00,
2013-02-19 17:41:00,49.8,47.0,29.76,South,185,1.0,-999.0,89,-99.99,,,0.08,weatherlink.com 1.10,2013-02-19 22:41:00,
2013-02-19 17:56:00,49.5,46.0,29.77,South,172,5.0,-999.0,89,-99.99,,,0.08,weatherlink.com 1.10,2013-02-19 22:56:00,
2013-02-19 18:11:00,49.2,46.0,29.78,SW,217,2.0,-999.0,88,-99.99,,,0.08,weatherlink.com 1.10,2013-02-19 23:11:00,
2013-02-19 18:26:00,48.9,46.0,29.78,South,182,6.0,-999.0,88,-99.99,,,0.08,weatherlink.com 1.10,2013-02-19 23:26:00,
2013-02-19 18:41:00,48.8,45.0,29.79,South,186,0.0,-999.0,87,-99.99,,,0.08,weatherlink.com 1.10,2013-02-19 23:41:00,
2013-02-19 18:56:00,48.3,45.0,29.79,WSW,247,0.0,-999.0,87,-99.99,,,0.08,weatherlink.com 1.10,2013-02-19 23:56:00,
2013-02-19 19:11:00,47.9,44.0,29.80,South,169,0.0,-999.0,87,-99.99,,,0.08,weatherlink.com 1.10,2013-02-20 00:11:00,
2013-02-19 19:26:00,47.4,44.0,29.80,SSE,162,0.0,-999.0,88,-99.99,,,0.08,weatherlink.com 1.10,2013-02-20 00:26:00,
2013-02-19 19:41:00,47.0,44.0,29.81,South,174,0.0,-999.0,88,-99.99,,,0.08,weatherlink.com 1.10,2013-02-20 00:41:00,
2013-02-19 19:56:00,46.5,44.0,29.81,South,182,0.0,-999.0,89,-99.99,,,0.08,weatherlink.com 1.10,2013-02-20 00:56:00,
2013-02-19 20:11:00,46.1,43.0,29.82,South,185,0.0,-999.0,90,-99.99,,,0.08,weatherlink.com 1.10,2013-02-20 01:11:00,
2013-02-19 20:26:00,45.8,43.0,29.82,South,182,0.0,-999.0,90,-99.99,,,0.08,weatherlink.com 1.10,2013-02-20 01:26:00,
2013-02-19 20:41:00,45.5,43.0,29.82,South,172,0.0,-999.0,90,-99.99,,,0.08,weatherlink.com 1.10,2013-02-20 01:41:00,
2013-02-19 20:56:00,45.4,42.0,29.83,SSW,192,0.0,-999.0,89,-99.99,,,0.08,weatherlink.com 1.10,2013-02-20 01:56:00,
2013-02-19 21:11:00,45.1,42.0,29.83,SSW,202,0.0,-999.0,89,-99.99,,,0.08,weatherlink.com 1.10,2013-02-20 02:11:00,
2013-02-19 21:26:00,44.8,42.0,29.83,SSW,195,0.0,-999.0,89,-99.99,,,0.08,weatherlink.com 1.10,2013-02-20 02:26:00,
2013-02-19 21:41:00,44.3,42.0,29.84,South,189,0.0,-999.0,90,-99.99,,,0.08,weatherlink.com 1.10,2013-02-20 02:41:00,
2013-02-19 21:56:00,44.1,41.0,29.84,South,185,0.0,-999.0,90,-99.99,,,0.08,weatherlink.com 1.10,2013-02-20 02:56:00,
2013-02-19 22:11:00,43.8,41.0,29.84,South,184,0.0,-999.0,90,-99.99,,,0.08,weatherlink.com 1.10,2013-02-20 03:11:00,
2013-02-19 22:26:00,43.5,41.0,29.84,South,182,0.0,-999.0,90,-99.99,,,0.08,weatherlink.com 1.10,2013-02-20 03:26:00,
2013-02-19 22:41:00,43.3,41.0,29.84,South,175,0.0,-999.0,90,-99.99,,,0.08,weatherlink.com 1.10,2013-02-20 03:41:00,
2013-02-19 22:56:00,42.9,41.0,29.84,South,169,0.0,-999.0,91,-99.99,,,0.08,weatherlink.com 1.10,2013-02-20 03:56:00,
2013-02-19 23:11:00,42.3,40.0,29.84,South,171,0.0,-999.0,92,-99.99,,,0.08,weatherlink.com 1.10,2013-02-20 04:11:00,
2013-02-19 23:26:00,42.2,40.0,29.84,South,182,2.0,-999.0,92,-99.99,,,0.08,weatherlink.com 1.10,2013-02-20 04:26:00,
2013-02-19 23:42:00,41.9,40.0,29.84,SSW,193,0.0,-999.0,92,-99.99,,,0.08,weatherlink.com 1.10,2013-02-20 04:42:00,
2013-02-19 23:56:00,41.6,40.0,29.84,SSW,192,0.0,-999.0,92,-99.99,,,0.08,weatherlink.com 1.10,2013-02-20 04:56:00,